Regional Weather Roundup
Issued by NWS

Home | Current Version | Previous Version | Text Only | Print | Product List | Glossary Off
Versions: 1 2 3 4 5 6 7 8 9 10 11 12 13 14 15 16 17 18 19 20 21 22 23 24 25 26 27 28 29 30 31 32 33 34 35 36 37 38 39 40 41 42 43 44 45 46 47 48 49 50

000
ASUS43 KDMX 221306
RWRIA

WEATHER ROUNDUP FOR IOWA
NATIONAL WEATHER SERVICE DES MOINES IA
800 AM CDT TUE AUG 22 2017

NOTE: "FAIR" INDICATES FEW OR NO CLOUDS BELOW 12,000 FEET WITH NO
SIGNIFICANT WEATHER AND/OR OBSTRUCTIONS TO VISIBILITY.

* - THESE STATIONS ARE NOT NWS STATIONS...THUS NOT UNDER NWS
QUALITY CONTROL.  THEY ALSO DO NOT REPORT WEATHER SUCH
AS PRECIPITATION OR FOG.

IAZ001>003-012>014-020>022-031>034-043>046-221400-
   NORTHWEST IOWA

CITY           SKY/WX    TMP DP  RH WIND       PRES   REMARKS
CARROLL *      SUNNY     63  59  88 NW10      30.10R
CHEROKEE *     SUNNY     58  56  93 N6        30.13R
DENISON *      SUNNY     61  59  94 CALM      30.13R
LE MARS *      SUNNY    104 N/A N/A CALM      30.14R
ORANGE CITY *  SUNNY     57  55  94 NW6       30.14R
SHELDON *      SUNNY     55  52  88 NW7       30.12R
SIOUX CITY     SUNNY     60  58  92 NW5       30.15R
SPENCER        SUNNY     57  53  86 NW8       30.10R
STORM LAKE *   SUNNY     57  52  82 NW9       30.12R
$$

IAZ055>058-069>071-079>083-090>094-221400-
   SOUTHWEST IOWA

CITY           SKY/WX    TMP DP  RH WIND       PRES   REMARKS
ATLANTIC *     SUNNY     64  63  94 N7        30.10R
AUDUBON *      SUNNY     63  61  94 NW6       30.11R
CLARINDA *     CLOUDY    64  64 100 N9        30.13R FOG
COUNCIL BLFS * SUNNY     63  63 100 N6        30.13R
CRESTON *      CLOUDY    63  63 100 NW13      30.10R FOG
HARLAN  *      SUNNY     63  63 100 NW8       30.15R
LAMONI         CLOUDY    65  64  97 NW9       30.07R
RED OAK *      MOSUNNY   64  64 100 CALM      30.12R FOG
SHENANDOAH *   CLOUDY    66  64  94 CALM      30.12R FOG
$$

IAZ047>049-059>061-072>074-084-221400-
   CENTRAL IOWA

CITY           SKY/WX    TMP DP  RH WIND       PRES   REMARKS
AMES           SUNNY     63  62  97 NW9       30.05R
ANKENY *       SUNNY     66  61  82 NW10      30.05R
BOONE *        SUNNY     63  59  88 NW10      30.05R
CHARITON *     CLOUDY    64  63  94 NW12      30.04R
DES MOINES     MOSUNNY   66  62  87 NW9       30.04R
GRINNELL*      SUNNY     64  61  92 NW10G16   30.02R
KNOXVILLE *    SUNNY     64  63  94 NW8       30.02R
MARSHALLTOWN   SUNNY     63  61  93 NW13      30.01R
NEWTON *       SUNNY     64  61  88 NW12G20   30.02R
PELLA *        SUNNY     65  62  90 NW8       30.03R
PERRY *          N/A     63  62  97 NW7       30.07R
$$

IAZ004>006-015-016-023>025-035-036-221400-
   NORTH CENTRAL IOWA

CITY           SKY/WX    TMP DP  RH WIND       PRES   REMARKS
ALGONA *       SUNNY     59  57  94 NW8       30.08R
CLARION *      SUNNY     59  59 100 NW12      30.06R
ESTHERVILLE    SUNNY     56  55  97 NW10      30.08R
FORT DODGE *   SUNNY     59  54  82 NW7       30.07R
FOREST CITY *    N/A     59  57  94 NW12      30.05R
WEBSTER CITY * SUNNY     61  57  88 NW12G20   30.05R
IOWA FALLS *     N/A     62  59  91 NW12      30.04R
$$

IAZ007>011-017>019-026>030-037>042-050>054-066-221400-
   NORTHEAST IOWA

CITY           SKY/WX    TMP DP  RH WIND       PRES   REMARKS
CEDAR RAPIDS   CLOUDY    64  64 100 NW10      29.97R
CHARLES CITY * SUNNY     63  63 100 NW13      30.01R
CLINTON *      CLOUDY    66  64  94 W9        29.94R
DECORAH *      MOSUNNY   63  61  94 NW9       29.95R
DUBUQUE        PTSUNNY   65  62  90 NW10      29.94R
MONTICELLO *   CLOUDY    66  63  88 NW10      29.94S
OELWEIN *      PTSUNNY   63  63 100 NW13G20   29.98R
WATERLOO       SUNNY     63  60  90 NW13      29.98R
$$

IAZ064-065-067-068-078-221400-
   EAST CENTRAL IOWA

CITY           SKY/WX    TMP DP  RH WIND       PRES   REMARKS
DAVENPORT      CLOUDY    66  64  93 W8        29.96R
IOWA CITY      MOSUNNY   67  64  90 W9        29.98R
MT. PLEASANT * PTSUNNY   65  65 100 W8        29.98R
MUSCATINE *    PTSUNNY   66  64  94 W7        29.96R
QUAD CITIES    CLOUDY    69  64  84 W9        29.94R
$$

IAZ062-063-075>077-085>089-095>099-221400-
   SOUTHEAST IOWA

CITY           SKY/WX    TMP DP  RH WIND       PRES   REMARKS
BURLINGTON     CLOUDY    67  66  97 VRB3      29.97R
FAIRFIELD *    PTSUNNY   66  63  88 NW10      29.99R
FORT MADISON * CLOUDY    66  66 100 NW7       29.99R
KEOKUK *       CLOUDY    66  64  94 NW10      29.98R
OSKALOOSA *      N/A     64  63  97 NW9       30.01R
CENTERVILLE *    N/A     64  64 100 W6        30.04R
OTTUMWA        CLOUDY    66  64  93 NW12      30.01R
WASHINGTON *   PTSUNNY   66  64  94 NW12      29.99R
$$

ABBREVIATIONS USED IN REMARKS
   TC - TEMPERATURES IN CELSIUS
  WCI - WIND CHILL INDEX
   HX - HEAT INDEX
  VSB - VISIBILITY
$$





USA.gov is the U.S. government's official web portal to all federal, state and local government web resources and services.